Location: Bottenau
(48.5138°N, 8.0462°E)
Time: 15:36:21
(UTC+00:00)

Iridium 4 Rocket - Pass Details

Date: 18 April 2021
Orbit: 586 x 903 km, 86.9° (Epoch: 07 May)

Event Time Altitude Azimuth Distance (km) Brightness Sun altitude
Exits shadow 23:11:57 55° 5° (N) 895 4.0 -30.2°
Drops below altitude 10° 23:16:03 10° 4° (N) 2,349 6.9 -30.3°
Sets 23:18:32 0° 4° (N) 3,333 8.0 -30.3°
